STARLINK-1172, 45074

Orbit data source: Space-Track

STARLINK-1172, 45074 is a payload satellite owned by SpaceX/Seattle (US) in LEO that was launched on Wed, 29 Jan 2020 UTC via an FALCON 9 launch vehicle from the Air Force Eastern Test Range (AFETR). Payload-class satellites include a variety of spacecraft equipped with specific instruments for various scientific and technological missions. These include communications satellites like Starlink; space stations such as the ISS; scientific satellites like the Hubble; Earth observation satellites from companies like Planet Labs, Umbra, and HawkEye 360; GPS; miniature CubeSats for education and research; and military/defense satellites.

Loading next visibility...
Identifier
45074, 2020-006AG
Orbit
LEO
Country
Flag of USUS
Related business
Manufacturer
SpaceX/Seattle
Mission
Partially operational Commercial Communications
Bus & Motor
STARLINK, Unknown motor
Mass
260 kg wet, ~248 kg dry
Launch date (UTC)
2020-01-29 (7 years ago)
Launch vehicle
FALCON 9
Launch site
Air Force Eastern Test Range (AFETR)
Object type
Payload
Rocket body
Debris
Shape & HBR
Box + 1 Pan, 10.1 m
Radar Cross Section
13.562 m², Large (>1 m²)

Expand to show TLE details & history
Last TLE update: 6 hours ago

TLE from 6 hours ago
0 STARLINK-1172
1 45074U 20006AG  26257.26243366  .00040739  00000-0  80692-3 0  9993
2 45074  53.1516  90.3592 0002259 138.7063 221.4116 15.46686888365907
Epoch: 2026-09-14T06:17Z
TLE epoch observation values (Epoch: 2026-09-14T06:17:54.268Z)
Latitude
-0.00001°
Longitude
2.63783°
Altitude
428.484 km
Speed
7.655 km/s
True Right ascension
06h 01m 26s
True Declination
0° 00' 00"
Sunlit
Object was in daylight at epoch
Visualization orbit readout
Latitude
Unknown
Longitude
Unknown
Altitude
Unknown
Speed
Unknown
Apparent Right ascension
Unknown
Apparent Declination
Unknown
Sunlit
N/A
Visualization observer readout
Local Sidereal Time
04:31:08
Azimuth
Unknown
Elevation
Unknown
Doppler factor
Unknown
Orbital elements
Apogee altitude
428.223 km
Perigee altitude
425.148 km
Semi-major axis
6,804.823 km
Eccentricity
0.00023
Inclination
53.1516°
RAAN
90.3592°
Arg. of periapsis
138.7063°
True anomaly
221.39448°
Mean anomaly
221.4116°
Eccentric anomaly
221.40304°
Mean motion
3.8665 °/min
Orbital period
93.11 mins
BSTAR
0.00080692
Loading maneuver chart data...
Computing Atmospheric mass density...
Loading historical data...
Loading historical data...
Loading historical data...
Loading historical data...
Loading historical data...
Loading historical data...
Loading historical data...

Documentation

Showing up to 5 results
|